This is the latest recevied weather packets stored in our database for station/object N0HOT. If no packets are shown the sender has not sent any weather packets the latest 10 day(s).
| Time | Temp. | Humidity | Pressure | Rain* | Wind** | Luminosity | Snow |
|---|---|---|---|---|---|---|---|
| 1777223143 | 19.44° C | 51% | 1015.6 hPa | 0 mm | - | 394 W/m² | - |
| 1777222839 | 19.44° C | 50% | 1015.6 hPa | 0 mm | - | 592 W/m² | - |
| 1777222537 | 18.89° C | 49% | 1015.6 hPa | 0 mm | - | 636 W/m² | - |
| 1777222234 | 18.89° C | 50% | 1015.6 hPa | 0 mm | - | 709 W/m² | - |
| 1777221932 | 18.33° C | 50% | 1016 hPa | 0 mm | - | 654 W/m² | - |
| 1777221627 | 17.78° C | 51% | 1016 hPa | 0 mm | - | 840 W/m² | - |
| 1777221324 | 17.78° C | 52% | 1016 hPa | 0 mm | - | 373 W/m² | - |
| 1777221023 | 17.78° C | 52% | 1016 hPa | 0 mm | - | 344 W/m² | - |
| 1777220722 | 17.78° C | 53% | 1016.3 hPa | 0 mm | - | 368 W/m² | - |
| 1777220418 | 17.78° C | 52% | 1016 hPa | 0 mm | - | 421 W/m² | - |
| 1777220118 | 17.22° C | 53% | 1016 hPa | 0 mm | - | 383 W/m² | - |
| 1777219815 | 17.22° C | 53% | 1016.3 hPa | 0 mm | - | 476 W/m² | - |
| 1777219513 | 17.22° C | 53% | 1016.3 hPa | 0 mm | - | 479 W/m² | - |
| 1777219209 | 17.22° C | 53% | 1016.3 hPa | 0 mm | - | 350 W/m² | - |
| 1777218904 | 16.67° C | 52% | 1016.3 hPa | 0 mm | - | 328 W/m² | - |
| 1777218601 | 16.67° C | 52% | 1016.7 hPa | 0 mm | - | 412 W/m² | - |
| 1777218301 | 16.67° C | 55% | 1016.7 hPa | 0 mm | - | 333 W/m² | - |
| 1777217998 | 16.67° C | 54% | 1016.7 hPa | 0 mm | - | 319 W/m² | - |
| 1777217693 | 16.67° C | 52% | 1016.7 hPa | 0 mm | - | 356 W/m² | - |
| 1777217389 | 16.67° C | 54% | 1016.7 hPa | 0 mm | - | 324 W/m² | - |
| 1777217086 | 16.67° C | 53% | 1016.7 hPa | 0 mm | - | 386 W/m² | - |
| 1777216783 | 16.67° C | 52% | 1016.7 hPa | 0 mm | - | 445 W/m² | - |
| 1777216478 | 16.11° C | 54% | 1016.7 hPa | 0 mm | - | 438 W/m² | - |
| 1777216173 | 16.11° C | 52% | 1016.7 hPa | 0 mm | - | 439 W/m² | - |
| 1777215867 | 16.11° C | 52% | 1017 hPa | 0 mm | - | 437 W/m² | - |
* Rain latest hour (hover to see other rain measurements)
** Current wind speed in m/s (hover to see current wind gust speed)